CAPE
715 2031 1771 1683 1480 1201 1092 1026 707 807 686 996 1109 905 574 289 31 0 0 1 46 113 205 213 207 92 103 36 13 13 9 0 43 8 1 0 26 66 46 136 41 7 0
598 1364 2013 1751 1718 1454 1301 1138 1435 970 970 1008 1021 821 586 285 92 28 75 260 240 344 396 325 333 111 76 38 1 0 1 0 0 0 0 0 0 10 40 58 3 1 0
275 1620 2100 1914 1591 1638 1633 1397 1066 1222 1153 1008 831 716 593 391 237 301 321 396 487 477 407 311 353 81 98 34 17 4 1 0 0 0 0 0 0 1 1 1 1 1 0
550 1542 1425 251 302 76 48 637 1195 1123 1015 731 553 431 418 271 267 332 493 579 587 488 389 342 287 154 117 30 0 1 1 1 1 17 0 0 0 0 1 8 3 1 1
27 26 45 63 31 13 1 1 3 26 474 571 339 290 345 426 747 642 642 652 537 480 339 293 230 159 100 0 0 0 0 1 1 1 1 1 1 0 15 0 1 0 0
1 2 1 2 27 1 2 7 0 0 0 19 32 20 48 316 174 197 627 695 488 398 372 200 158 204 117 12 0 0 0 0 0 0 30 36 50 0 1 0 0 1 0
5 1 1 0 1 2 0 2 0 0 0 2 26 45 59 19 0 13 25 363 391 329 321 237 123 238 142 57 0 0 0 9 69 2 72 77 26 0 0 0 0 0 0
14 0 0 0 0 0 2 5 2 0 13 3 0 1 0 8 0 0 0 41 273 187 200 132 82 107 104 88 52 13 0 0 0 0 0 7 0 0 0 0 0 0 0
1 1 3 0 0 0 0 0 0 0 0 0 0 0 0 0 0 0 0 13 176 187 112 96 64 83 84 63 37 13 0 0 0 0 0 0 0 0 0 0 1 1 0
0 0 0 0 0 0 0 0 0 1 20 1 0 0 9 0 0 0 0 2 69 71 8 0 5 92 122 35 6 17 27 29 0 0 0 0 0 0 0 0 0 0 0
0 0 0 0 0 0 0 0 0 0 0 0 1 1 1 0 1 0 0 8 39 32 3 1 4 0 0 0 0 8 24 17 1 0 0 0 0 0 0 0 0 0 0
0 0 0 0 0 0 0 0 0 0 0 1 1 2 2 1 1 1 1 8 1 26 34 48 0 1 0 0 0 0 0 0 0 0 0 0 0 0 0 0 0 0 0
0 0 0 0 0 0 0 0 0 0 0 0 2 2 1 4 2 1 1 1 0 1 0 2 1 0 1 1 1 2 0 0 0 0 1 5 0 0 0 0 1 1 0
0 0 0 0 0 0 0 0 0 0 0 0 0 0 0 0 0 0 1 0 0 0 0 0 0 0 0 0 0 0 0 0 0 0 0 4 1 1 1 0 2 1 1
0 0 0 0 0 0 0 0 0 0 0 0 0 0 0 0 0 1 1 0 0 0 0 0 0 0 0 0 1 0 0 0 0 0 0 0 0 1 3 4 3 2 1
0 0 0 0 0 0 0 0 0 0 2 1 2 0 1 1 1 1 1 1 1 0 0 0 0 0 0 0 0 0 0 0 0 1 1 1 0 0 0 1 20 23 12
0 0 0 0 0 0 0 0 0 0 1 2 1 1 0 1 1 0 0 1 1 0 0 0 1 1 3 1 0 0 0 0 0 0 1 1 1 1 2 2 4 4 8
0 0 0 0 0 0 0 0 0 0 0 0 0 1 0 0 0 0 0 1 0 0 4 2 1 2 2 1 1 1 3 4 1 7 3 7 5 1 1 1 1 3 4
0 0 0 0 0 0 0 0 0 0 0 0 0 1 1 1 0 0 0 0 0 0 0 2 1 2 2 1 1 1 1 1 1 19 14 2 1 1 0 1 1 1 1
0 0 0 0 0 0 0 0 0 0 0 0 0 0 1 0 0 0 0 0 0 0 0 0 0 0 1 1 1 1 1 0 1 1 1 1 0 1 1 0 0 0 0
0 0 0 0 0 0 0 0 0 1 0 0 0 0 0 0 0 0 0 0 0 0 0 0 0 1 0 0 0 0 0 1 0 0 0 0 0 0 0 0 0 0 0
0 0 0 0 0 0 0 0 0 0 0 0 0 0 1 0 0 0 0 0 0 0 0 0 0 0 1 1 0 0 0 0 0 0 0 0 0 0 0 0 1 1 1
0 0 0 0 0 0 0 0 0 0 0 0 0 0 0 0 0 0 0 0 0 0 0 0 0 0 0 0 0 0 0 1 1 0 0 0 0 0 0 0 0 0 0
0 0 0 0 0 0 0 0 0 0 0 0 0 0 0 0 0 0 0 0 0 0 0 0 0 0 0 0 0 0 0 0 0 0 0 0 0 0 0 0 0 0 0
0 0 0 0 0 0 0 0 0 0 0 0 0 0 0 0 0 0 0 0 0 0 0 0 0 0 0 0 0 0 0 0 0 0 0 0 0 0 0 0 0 0 0
0 0 0 0 0 0 0 0 0 0 0 0 0 0 0 0 0 0 0 0 0 0 0 0 0 0 0 0 0 0 0 0 0 0 0 0 0 0 4 0 0 0 0
CIN
-530 -116 -132 -190 -219 -258 -241 -230 -332 -289 -322 -228 -215 -230 -270 -307 -425 -0 -0 -28 -226 -163 -122 -129 -131 -155 -142 -155 -170 -69 -42 -0 -73 -262 -234 -0 -105 -62 -30 -58 -164 -194 -70
-483 -280 -152 -187 -192 -206 -193 -178 -109 -226 -221 -227 -214 -249 -277 -329 -386 -315 -301 -172 -141 -115 -101 -99 -94 -168 -186 -197 -11 -0 -0 -0 -0 -0 -0 -0 -6 -139 -88 -76 -192 -0 -0
-571 -161 -160 -127 -120 -81 -113 -104 -139 -161 -177 -229 -285 -278 -296 -321 -304 -248 -218 -151 -110 -102 -111 -120 -92 -178 -170 -230 -245 -81 -0 -0 -0 -0 -0 -0 -0 -1 -0 -0 -0 -0 -0
-366 -97 -299 -727 -547 -574 -574 -269 -86 -129 -171 -260 -270 -315 -302 -348 -277 -195 -161 -139 -110 -97 -107 -126 -111 -137 -176 -256 -0 -0 -0 -0 -0 -163 -0 -0 -0 -0 -44 -108 -51 -0 -0
-536 -478 -649 -759 -704 -570 -141 -154 -425 -242 -199 -245 -283 -300 -300 -273 -184 -149 -92 -77 -144 -122 -128 -143 -165 -136 -161 -0 -0 -0 -0 -0 -0 -59 -0 -0 -36 -0 -52 -0 -0 -0 -0
-0 -0 -0 -0 -556 -0 -0 -175 -0 -0 -0 -267 -433 -457 -396 -243 -286 -264 -178 -87 -83 -110 -135 -169 -168 -182 -140 -133 -0 -0 -0 -0 -0 -0 -123 -95 -84 -0 -0 -0 -0 -0 -0
-281 -0 -0 -0 -0 -61 -0 -270 -0 -0 -0 -23 -247 -276 -307 -57 -99 -487 -428 -210 -104 -98 -131 -141 -184 -161 -160 -174 -0 -0 -0 -38 -88 -4 -71 -109 -90 -0 -0 -0 -0 -0 -0
-331 -0 -0 -0 -0 -0 -0 -0 -155 -0 -0 -0 -0 -137 -32 -142 -0 -0 -161 -401 -167 -110 -117 -189 -210 -138 -179 -153 -184 -149 -0 -0 -0 -0 -0 -33 -0 -0 -0 -0 -0 -0 -0
-0 -0 -103 -0 -0 -0 -0 -0 -0 -0 -0 -0 -0 -0 -0 -0 -0 -0 -0 -488 -221 -152 -136 -192 -220 -169 -170 -202 -190 -222 -0 -0 -0 -0 -0 -0 -0 -0 -0 -0 -0 -0 -0
-0 -0 -0 -0 -0 -0 -0 -0 -0 -18 -35 -49 -0 -0 -122 -1 -0 -0 -0 -309 -240 -254 -292 -0 -92 -151 -133 -173 -107 -217 -261 -246 -0 -0 -0 -0 -0 -0 -0 -0 -0 -0 -0
-0 -0 -0 -0 -0 -0 -0 -0 -0 -0 -0 -0 -0 -0 -0 -0 -0 -0 -0 -188 -180 -238 -113 -20 -214 -0 -0 -0 -0 -300 -297 -252 -38 -0 -0 -0 -0 -0 -0 -0 -0 -0 -0
-0 -0 -0 -0 -0 -0 -0 -0 -0 -0 -0 -0 -0 -0 -0 -0 -0 -0 -0 -81 -0 -211 -139 -150 -0 -0 -0 -0 -0 -0 -0 -0 -0 -0 -0 -0 -0 -0 -0 -0 -0 -0 -0
-0 -0 -0 -0 -0 -0 -0 -0 -0 -0 -0 -0 -0 -0 -0 -0 -0 -0 -0 -0 -0 -0 -0 -0 -0 -0 -0 -0 -0 -0 -0 -0 -0 -0 -99 -121 -0 -0 -0 -0 -0 -0 -0
-0 -0 -0 -0 -0 -0 -0 -0 -0 -0 -0 -0 -0 -0 -0 -0 -0 -0 -0 -0 -0 -0 -0 -0 -0 -0 -0 -0 -0 -0 -0 -0 -0 -0 -0 -132 -69 -0 -0 -0 -0 -0 -0
-0 -0 -0 -0 -0 -0 -0 -0 -0 -0 -0 -0 -0 -0 -0 -0 -0 -0 -0 -0 -0 -0 -0 -0 -0 -0 -0 -0 -0 -0 -0 -0 -0 -0 -0 -0 -0 -0 -7 -19 -0 -0 -0
-0 -0 -0 -0 -0 -0 -0 -0 -0 -0 -0 -0 -0 -0 -0 -0 -0 -0 -0 -0 -0 -0 -0 -0 -0 -0 -0 -0 -0 -0 -0 -0 -0 -0 -0 -0 -0 -0 -0 -0 -15 -0 -0
-0 -0 -0 -0 -0 -0 -0 -0 -0 -0 -0 -0 -0 -0 -0 -0 -0 -0 -0 -0 -0 -0 -0 -0 -0 -0 -0 -0 -0 -0 -0 -0 -0 -0 -0 -0 -0 -0 -0 -4 -0 -1 -0
-0 -0 -0 -0 -0 -0 -0 -0 -0 -0 -0 -0 -0 -0 -0 -0 -0 -0 -0 -0 -0 -0 -0 -0 -0 -0 -0 -0 -0 -0 -3 -55 -45 -64 -58 -52 -48 -0 -4 -12 -0 -55 -2
-0 -0 -0 -0 -0 -0 -0 -0 -0 -0 -0 -0 -0 -0 -0 -0 -0 -0 -0 -0 -0 -1 -1 -0 -1 -0 -0 -0 -0 -0 -0 -0 -0 -44 -53 -37 -0 -0 -0 -0 -0 -0 -0
-0 -0 -0 -0 -0 -0 -0 -0 -0 -0 -0 -0 -0 -0 -0 -0 -0 -0 -0 -0 -0 -3 -1 -0 -0 -0 -0 -0 -0 -0 -0 -0 -0 -0 -0 -0 -0 -0 -0 -0 -0 -0 -0
-0 -0 -0 -0 -0 -0 -0 -0 -0 -162 -0 -0 -0 -0 -0 -0 -0 -0 -0 -0 -0 -0 -0 -0 -0 -0 -0 -0 -0 -0 -0 -0 -0 -0 -0 -0 -0 -0 -0 -0 -0 -0 -0
-0 -0 -0 -0 -0 -0 -0 -0 -0 -0 -0 -0 -0 -0 -0 -0 -0 -0 -0 -0 -0 -0 -0 -0 -0 -0 -0 -0 -0 -0 -0 -0 -0 -0 -0 -0 -0 -0 -0 -0 -0 -0 -0
-0 -0 -0 -0 -0 -0 -0 -0 -0 -0 -0 -0 -0 -0 -0 -0 -0 -0 -0 -0 -0 -0 -0 -0 -0 -0 -0 -0 -0 -0 -0 -0 -0 -0 -0 -0 -0 -0 -0 -0 -0 -0 -0
-0 -0 -0 -0 -0 -0 -0 -0 -0 -0 -0 -0 -0 -0 -0 -0 -0 -0 -0 -0 -0 -0 -0 -0 -0 -0 -0 -0 -0 -0 -0 -0 -0 -0 -0 -0 -0 -0 -0 -0 -0 -0 -0
-0 -0 -0 -0 -0 -0 -0 -0 -0 -0 -0 -0 -0 -0 -0 -0 -0 -0 -0 -0 -0 -0 -0 -0 -0 -0 -0 -0 -0 -0 -0 -0 -0 -0 -0 -0 -0 -0 -0 -0 -0 -0 -0
-0 -0 -0 -0 -0 -0 -0 -0 -0 -0 -0 -0 -0 -0 -0 -0 -0 -0 -22 -0 -0 -0 -0 -0 -0 -0 -0 -0 -0 -0 -0 -0 -0 -0 -0 -0 -0 -0 -67 -0 -0 -0 -0
Wind_Speed
8 13 15 14 16 15 15 13 12 11 10 9 10 10 10 10 9 8 7 7 9 7 7 8 7 6 4 4 4 3 4 4 6 2 2 3 2 4 3 3 5 4 3
8 11 17 16 17 16 16 15 11 10 8 11 11 10 10 10 9 9 9 9 10 9 8 7 7 4 5 5 4 7 5 5 3 4 1 2 4 3 2 3 3 3 4
10 10 16 16 14 14 14 11 8 10 11 10 11 11 11 10 10 9 9 8 8 8 7 7 7 6 5 4 6 5 3 3 4 2 3 1 1 1 2 2 2 2 3
4 3 10 12 9 8 8 4 5 8 8 8 7 7 7 6 7 7 8 8 7 6 6 7 6 7 7 7 6 7 5 5 4 5 2 1 2 1 1 2 2 2 3
9 10 11 16 14 8 8 11 10 12 5 10 8 7 7 8 7 9 7 6 7 7 6 6 6 7 9 7 5 5 6 5 3 3 3 3 2 1 3 1 2 1 3
8 11 7 12 6 3 4 8 8 7 8 10 10 11 9 6 8 8 8 7 8 7 7 6 6 7 8 11 11 10 9 7 6 4 3 4 6 4 2 3 2 2 2
5 9 9 11 4 1 1 6 3 12 13 15 9 7 11 3 11 12 14 8 7 7 7 6 5 5 8 6 9 8 9 11 7 7 5 8 5 7 5 4 5 4 4
9 9 13 5 5 3 4 5 3 4 11 10 8 5 4 7 11 7 11 7 6 7 8 8 7 6 6 7 6 6 7 8 9 7 7 8 6 5 8 6 6 4 1
9 9 6 3 2 3 1 3 5 4 6 6 7 7 6 7 9 8 6 6 6 7 8 7 8 7 9 11 6 7 6 6 6 11 10 9 10 11 9 5 3 4 5
6 6 4 4 3 3 1 4 4 5 5 5 7 5 8 6 5 8 3 4 4 4 3 3 6 6 9 9 8 7 6 7 5 4 4 6 7 6 12 9 7 7 4
3 3 4 4 3 4 1 2 3 4 2 2 5 4 5 5 5 10 9 4 3 2 3 2 3 4 7 8 10 6 8 6 6 5 4 4 3 5 6 8 8 8 7
4 5 6 6 6 5 5 4 4 3 4 4 6 6 5 4 2 7 8 3 8 4 3 3 2 2 3 5 5 9 5 3 1 3 3 5 6 7 8 8 10 9 8
6 6 6 6 5 6 6 6 4 6 4 4 3 5 5 4 5 10 8 5 2 2 3 3 2 2 3 4 10 10 5 3 4 4 7 7 5 4 3 4 7 7 8
6 6 6 7 7 7 5 5 5 5 4 4 4 5 5 4 3 3 1 4 2 1 2 2 1 2 4 5 4 6 4 4 5 5 5 4 2 3 5 6 6 8 7
4 4 5 4 5 4 3 3 3 3 2 2 2 4 4 3 3 3 3 1 2 3 4 2 3 2 2 3 4 6 4 4 4 3 3 4 3 3 6 6 8 8 9
4 4 4 4 4 3 4 4 4 4 5 7 7 5 3 7 4 3 1 1 2 6 1 1 2 2 3 4 5 4 3 4 4 4 5 4 5 5 6 5 7 9 10
3 4 3 4 3 3 3 3 3 4 2 2 7 6 4 7 2 4 6 6 4 0 1 1 2 3 3 4 3 3 4 4 4 4 5 5 5 5 6 7 8 9 10
4 4 3 2 2 2 3 2 2 1 1 3 5 3 5 8 7 5 3 3 2 1 1 2 2 3 3 3 4 3 4 3 3 4 5 5 5 5 6 7 7 8 9
3 3 4 2 1 2 1 2 2 2 3 1 2 1 3 2 3 6 6 3 3 1 1 2 2 2 3 3 3 3 3 4 4 3 3 4 3 3 5 5 4 4 3
4 6 4 3 3 3 3 3 3 2 1 2 3 3 4 1 1 2 1 1 2 3 2 3 3 3 4 5 5 4 4 3 4 3 3 3 3 2 3 4 3 3 3
3 4 6 3 3 3 3 3 2 3 2 3 3 3 6 3 4 3 4 3 2 1 1 1 2 3 3 3 3 4 4 4 3 3 3 4 3 3 2 2 1 2 2
2 3 2 0 1 2 1 2 3 3 1 1 0 2 6 3 3 3 3 3 2 2 2 2 1 0 0 1 1 2 3 3 3 3 3 3 2 3 2 3 2 3 3
1 2 1 1 0 1 1 1 1 0 2 2 3 2 2 3 3 4 4 4 4 3 3 3 2 1 0 2 2 2 3 3 3 3 3 3 3 3 3 3 3 4 4
2 3 3 3 2 2 2 2 3 3 2 3 4 4 4 4 5 6 5 5 4 4 3 2 2 3 2 2 0 1 1 2 3 2 3 2 2 3 3 3 3 3 4
1 4 3 3 3 4 3 4 4 3 3 3 3 2 4 4 5 5 4 3 4 4 5 4 4 4 5 6 4 3 2 1 1 3 1 1 1 1 1 2 2 1 2
1 2 1 2 3 4 5 5 5 5 4 4 4 4 3 4 4 4 5 6 5 4 5 4 4 6 6 4 5 3 3 2 1 1 1 2 3 2 2 1 2 1 1
Wind_Direction
154 184 200 202 198 202 211 215 210 205 193 192 200 194 197 198 183 182 187 189 206 211 205 205 216 192 207 190 195 196 200 177 234 293 242 227 236 199 205 184 148 158 206
278 182 189 199 202 205 209 211 205 201 190 195 201 197 194 193 181 186 191 195 202 206 213 200 214 183 204 191 196 218 193 176 169 246 277 278 227 234 213 167 155 148 192
269 234 182 194 201 213 212 206 193 186 200 199 190 193 190 185 183 191 191 201 203 210 204 203 214 188 200 192 192 188 192 174 197 200 275 320 319 12 80 108 136 157 198
251 295 119 90 99 75 62 64 175 190 191 188 189 193 179 175 185 195 192 195 200 208 205 200 205 203 205 191 187 180 174 202 186 214 226 284 269 253 156 163 175 186 198
104 97 102 100 97 93 83 76 18 340 255 166 163 159 160 171 178 180 194 206 204 205 210 212 207 218 211 195 174 192 173 182 190 193 183 169 229 256 235 148 209 212 238
78 96 110 71 49 128 156 128 147 308 327 254 169 173 161 145 150 180 173 186 209 206 209 214 216 189 218 208 200 178 181 180 202 195 200 215 222 212 215 225 191 179 271
49 64 74 81 297 1 140 224 217 244 265 260 212 215 171 149 269 176 172 189 206 208 201 203 211 201 200 209 215 198 200 203 192 187 204 208 206 195 170 193 196 193 218
17 33 54 86 137 166 157 178 181 230 233 242 247 223 228 195 221 225 174 180 215 212 198 195 189 214 205 201 206 199 204 209 212 213 204 219 208 177 186 184 201 210 192
39 40 47 59 37 52 116 207 218 210 249 233 224 229 205 220 215 187 217 143 193 215 218 194 181 202 215 197 191 217 221 235 215 214 213 217 201 187 167 127 160 178 239
24 36 52 82 113 127 208 230 232 210 220 243 248 244 224 202 143 127 121 98 218 218 225 232 210 216 221 197 201 206 214 237 203 193 227 247 232 189 176 190 168 204 192
23 47 53 54 67 55 13 274 255 244 3 25 81 56 69 91 142 151 164 167 178 202 205 246 256 239 236 216 206 195 207 209 213 211 228 243 214 196 191 206 201 189 195
32 28 23 34 27 29 24 347 8 51 100 72 95 84 61 37 52 179 160 178 183 158 192 156 155 78 73 19 189 224 236 218 208 216 216 224 217 218 215 209 214 217 219
38 21 12 31 31 23 25 10 18 31 55 78 64 72 72 60 57 80 93 107 178 199 189 157 179 15 325 324 271 258 238 188 198 217 235 240 228 242 195 202 225 223 232
55 37 15 17 15 17 7 39 30 28 40 57 100 94 77 61 61 64 79 80 323 145 152 187 173 241 238 238 294 255 206 219 213 211 236 246 199 188 206 213 220 219 219
54 34 34 15 26 16 18 349 69 67 51 84 61 90 101 68 57 35 19 49 65 40 347 356 331 309 337 281 233 240 215 204 214 214 212 239 241 239 245 226 231 228 226
37 19 2 10 11 44 39 357 53 73 79 77 62 110 68 67 83 9 36 106 135 144 79 327 324 309 248 239 231 240 232 223 217 220 213 219 238 246 256 252 246 235 241
31 354 1 35 26 353 355 343 343 338 359 91 85 89 137 143 89 55 52 78 86 9 134 249 256 254 273 272 243 227 241 231 231 216 230 217 222 234 244 255 253 248 253
0 342 355 338 300 280 254 249 216 192 267 299 110 94 130 156 129 83 61 160 29 298 333 347 352 352 354 330 335 322 318 270 231 232 229 237 228 229 239 244 248 256 260
358 351 346 6 340 288 336 278 242 250 246 224 105 60 114 130 76 57 47 69 49 47 17 352 350 332 318 316 311 292 294 288 288 262 231 245 248 239 245 248 256 271 277
334 355 15 42 28 345 9 60 25 38 44 126 155 152 154 158 127 71 37 280 48 38 15 9 5 3 2 358 352 348 354 357 357 346 334 310 290 246 251 259 234 214 207
348 339 346 19 31 352 1 22 40 57 55 114 120 137 178 159 176 178 202 208 194 157 92 80 32 27 15 12 0 356 1 8 8 12 19 337 358 325 343 300 204 173 130
317 314 311 17 43 51 63 43 33 26 342 278 213 91 157 125 165 196 229 240 250 247 229 175 189 168 304 350 353 20 30 23 15 7 14 10 25 44 32 63 66 68 95
287 324 308 331 289 231 93 75 74 340 312 272 229 171 170 175 195 206 219 221 226 241 240 216 194 175 56 63 51 54 58 28 358 359 12 27 35 28 70 78 79 77 59
276 294 293 288 274 255 244 219 207 213 216 181 185 202 206 199 206 217 217 228 237 249 243 240 219 210 234 219 315 2 14 6 341 1 38 33 40 32 59 69 62 101 109
244 316 262 275 259 233 262 266 275 281 288 291 282 252 215 197 213 223 227 231 248 234 236 228 227 230 216 206 209 214 201 196 58 339 328 340 92 105 107 90 72 75 91
242 292 355 232 242 249 245 233 235 241 249 251 268 270 241 220 225 226 213 210 225 245 243 226 238 226 228 235 241 227 223 256 292 0 314 245 219 221 213 214 205 183 149